This is the latest recevied weather packets stored in our database for station/object WX9WTF. If no packets are shown the sender has not sent any weather packets the latest 10 day(s).
| Time | Temp. | Humidity | Pressure | Rain* | Wind** | Luminosity | Snow |
|---|---|---|---|---|---|---|---|
| 1777863744 | 16.67° C | 80% | 1008.3 hPa | 0 mm | - | 0 W/m² | - |
| 1777863441 | 16.67° C | 80% | 1008.5 hPa | 0 mm | - | 0 W/m² | - |
| 1777863137 | 16.67° C | 80% | 1008.3 hPa | 0 mm | - | 0 W/m² | - |
| 1777862834 | 16.67° C | 80% | 1008.3 hPa | 0 mm | - | 0 W/m² | - |
| 1777862531 | 16.67° C | 81% | 1008.3 hPa | 0 mm | - | 0 W/m² | - |
| 1777862228 | 16.67° C | 81% | 1008.3 hPa | 0 mm | - | 0 W/m² | - |
| 1777861923 | 17.22° C | 79% | 1008.1 hPa | 0 mm | - | 0 W/m² | - |
| 1777861620 | 17.22° C | 78% | 1008.1 hPa | 0 mm | - | 0 W/m² | - |
| 1777861316 | 17.22° C | 78% | 1008.1 hPa | 0 mm | - | 0 W/m² | - |
| 1777861014 | 17.22° C | 77% | 1008 hPa | 0 mm | - | 0 W/m² | - |
| 1777860710 | 17.22° C | 77% | 1008 hPa | 0 mm | - | 0 W/m² | - |
| 1777860402 | 17.22° C | 75% | 1008.1 hPa | 0 mm | - | 0 W/m² | - |
| 1777860098 | 17.78° C | 73% | 1008 hPa | 0 mm | - | 0 W/m² | - |
| 1777859795 | 17.78° C | 72% | 1008 hPa | 0 mm | - | 0 W/m² | - |
| 1777859491 | 17.78° C | 72% | 1007.9 hPa | 0 mm | - | 0 W/m² | - |
| 1777859187 | 18.33° C | 68% | 1008 hPa | 0 mm | - | 0 W/m² | - |
| 1777858884 | 18.89° C | 66% | 1008 hPa | 0 mm | - | 0 W/m² | - |
| 1777858582 | 19.44° C | 64% | 1008.1 hPa | 0 mm | - | 0 W/m² | - |
| 1777858279 | 19.44° C | 62% | 1008 hPa | 0 mm | - | 0 W/m² | - |
| 1777857976 | 20° C | 61% | 1008.1 hPa | 0 mm | - | 0 W/m² | - |
| 1777857674 | 20.56° C | 58% | 1008.2 hPa | 0 mm | - | 1 W/m² | - |
| 1777857371 | 20.56° C | 57% | 1008 hPa | 0 mm | - | 2 W/m² | - |
| 1777857067 | 20.56° C | 57% | 1008.1 hPa | 0 mm | - | 2 W/m² | - |
| 1777856763 | 21.11° C | 56% | 1008.2 hPa | 0 mm | - | 4 W/m² | - |
| 1777856459 | 21.11° C | 55% | 1008.1 hPa | 0 mm | - | 6 W/m² | - |
* Rain latest hour (hover to see other rain measurements)
** Current wind speed in m/s (hover to see current wind gust speed)